Satellite-Ground Cal/Val Region Overpasses Predictions

Prediction of Satellite NPP Overpassing Cal/Val Region: PacNW

Region Location: (Latitude: 10.00, Longitude: 139.50) to (Latitude: 22.70, Longitude: 165.60).

Table of predicted overpasses for the next 14.0 days since TLE Epoch: 12/18/2016
Interval Starting Time Starting Location Ending Time Ending Location
1 12/19/2016 03:05:16 ( 10.00, 153.43) 12/19/2016 03:08:52 ( 22.68, 150.42)
2 12/19/2016 15:37:10 ( 22.67, 150.65) 12/19/2016 15:40:45 ( 10.05, 147.65)
3 12/20/2016 02:46:14 ( 10.04, 158.18) 12/20/2016 02:49:49 ( 22.66, 155.18)
4 12/20/2016 15:18:07 ( 22.69, 155.41) 12/20/2016 15:21:43 ( 10.01, 152.40)
5 12/21/2016 02:27:12 ( 10.02, 162.94) 12/21/2016 02:30:47 ( 22.64, 159.94)
6 12/21/2016 14:59:06 ( 22.65, 160.16) 12/21/2016 15:02:41 ( 10.03, 157.16)
7 12/22/2016 02:10:44 ( 19.04, 165.59) 12/22/2016 02:11:46 ( 22.68, 164.69)
8 12/22/2016 03:49:39 ( 10.01, 142.33) 12/22/2016 03:53:02 ( 21.93, 139.51)
9 12/22/2016 14:40:03 ( 22.67, 164.92) 12/22/2016 14:43:38 ( 10.05, 161.92)
10 12/22/2016 16:21:33 ( 22.66, 139.55) 12/22/2016 16:21:36 ( 22.48, 139.50)
11 12/23/2016 03:30:38 ( 10.05, 147.08) 12/23/2016 03:34:13 ( 22.67, 144.08)
12 12/23/2016 16:02:31 ( 22.68, 144.31) 12/23/2016 16:06:07 ( 10.00, 141.30)
13 12/24/2016 03:11:36 ( 10.03, 151.84) 12/24/2016 03:15:11 ( 22.65, 148.84)
14 12/24/2016 15:43:28 ( 22.70, 149.07) 12/24/2016 15:47:04 ( 10.02, 146.06)
15 12/25/2016 02:52:33 ( 10.01, 156.60) 12/25/2016 02:56:09 ( 22.69, 153.59)
16 12/25/2016 15:24:27 ( 22.66, 153.82) 12/25/2016 15:28:02 ( 10.04, 150.82)
17 12/26/2016 02:33:32 ( 10.05, 161.35) 12/26/2016 02:37:07 ( 22.67, 158.35)
18 12/26/2016 15:05:24 ( 22.68, 158.58) 12/26/2016 15:08:59 ( 10.06, 155.58)
19 12/27/2016 02:15:07 ( 12.27, 165.60) 12/27/2016 02:18:04 ( 22.66, 163.11)
20 12/27/2016 03:55:59 ( 10.04, 140.74) 12/27/2016 03:57:29 ( 15.33, 139.51)
21 12/27/2016 14:46:22 ( 22.69, 163.35) 12/27/2016 14:49:58 ( 10.02, 160.33)
22 12/28/2016 03:36:57 ( 10.02, 145.50) 12/28/2016 03:40:32 ( 22.65, 142.50)
23
